Terminal Aerodrome Forecast
Issued by NWS

Home | Current Version | Previous Version | Text Only | Print | Product List | Glossary On
Versions: 1 2 3 4 5 6 7 8 9 10 11 12 13 14 15 16 17
000
FTUS46 KMTR 212300
TAFOAK
TAF
KOAK 212333Z 2200/2306 28012KT P6SM BKN015
      TEMPO 2201/2204 SCT015
     FM220400 29005KT P6SM OVC012
     FM221900 29006KT P6SM SCT015
     FM222100 29012KT P6SM FEW010
     FM230400 30006KT P6SM FEW010=

USA.gov is the U.S. government's official web portal to all federal, state and local government web resources and services.